Regional Weather Roundup
Issued by NWS

Home | Current Version | Previous Version | Graphics & Text | Print | Product List | Glossary Off
Versions: 1 2 3 4 5 6 7 8 9 10 11 12 13 14 15 16 17 18 19 20 21 22 23 24 25 26 27 28 29 30 31 32 33 34 35 36 37 38 39 40 41 42 43 44 45 46 47 48 49 50

000
ASUS43 KFSD 070502
RWRSD

WEATHER ROUNDUP FOR SOUTH DAKOTA
NATIONAL WEATHER SERVICE SIOUX FALLS SD
1100 PM CST SAT FEB 06 2016

NOTE: "FAIR" INDICATES FEW OR NO CLOUDS BELOW 12,000 FEET WITH NO
SIGNIFICANT WEATHER AND/OR OBSTRUCTIONS TO VISIBILITY.


SDZ001>005-009-010-012>017-070600-
NORTHWEST AND NORTH CENTRAL SOUTH DAKOTA

CITY           SKY/WX    TMP DP  RH WIND       PRES   REMARKS
BUFFALO          N/A     38  21  50 NW25G35   29.89S
FAITH            N/A     37  21  52 NW26      29.91R
MOBRIDGE       CLEAR     42  27  55 NW25G38   29.77S
$$

SDZ012>016-024>037-041>051-057-063-072>074-070600-
SOUTHWEST AND SOUTH CENTRAL SOUTH DAKOTA

CITY           SKY/WX    TMP DP  RH WIND       PRES   REMARKS
RAPID CTY ARPT CLEAR     38  19  46 NW25G36   30.01R
PIERRE         CLEAR     40  25  55 W21       29.88R
CUSTER         CLOUDY    32   9  38 NW10G24   30.00R WCI  24
ELLSWORTH AFB  CLEAR     38  20  47 NW23G32   30.00R
PHILIP         CLEAR     39  24  55 W16       29.97R
PINE RIDGE     MOCLDY    30  25  81 SW5       30.05S WCI  25
WINNER         FAIR      40  26  57 W17G26    29.94R
$$

SDZ004>011-016>023-039-040-070600-
NORTHEAST SOUTH DAKOTA

CITY           SKY/WX    TMP DP  RH WIND       PRES   REMARKS
ABERDEEN       CLEAR     41  25  53 W15G25    29.73S
WATERTOWN      CLEAR     37  26  64 W17       29.72F
BROOKINGS      PTCLDY    38  29  70 W18       29.75F
SISSETON         N/A     39  29  67 W16       29.65F
$$

SDZ017-020-022-023-036>040-048>070-070600-
SOUTHEAST SOUTH DAKOTA

CITY           SKY/WX    TMP DP  RH WIND       PRES   REMARKS
SIOUX FALLS    CLOUDY    37  29  72 W8        29.82F
HURON          PTCLDY    39  29  67 W15       29.80F
MITCHELL       CLOUDY    41  30  65 W18       29.85R
YANKTON        CLOUDY    41  28  60 W13       29.87S
$$

ABBREVIATIONS USED IN REMARKS
   TC - TEMPERATURE IN CELSIUS
  WCI - WIND CHILL INDEX
   HX - HEAT INDEX
  VSB - VISIBILITY




USA.gov is the U.S. government's official web portal to all federal, state and local government web resources and services.